Time,TemperatureF,DewpointF,PressureIn,WindDirection,WindDirectionDegrees,WindSpeedMPH,WindSpeedGustMPH,Humidity,HourlyPrecipIn,Conditions,Clouds,dailyrainin,SoftwareType,DateUTC
2013-07-12 00:01:00,73.0,72.0,29.84,North,5,0.0,0.0,97,0.00,,,0.01,,2013-07-12 04:01:00,
2013-07-12 00:11:00,73.0,72.0,29.83,North,5,0.0,0.0,97,0.00,,,0.01,,2013-07-12 04:11:00,
2013-07-12 00:22:00,73.0,72.0,29.83,North,5,0.0,0.0,97,0.00,,,0.01,,2013-07-12 04:22:00,
2013-07-12 00:43:00,73.0,72.0,29.83,North,5,0.0,0.0,97,0.00,,,0.01,,2013-07-12 04:43:00,
2013-07-12 00:53:00,73.0,72.0,29.82,North,5,0.0,0.0,97,0.00,,,0.01,,2013-07-12 04:53:00,
2013-07-12 01:02:00,73.0,72.0,29.82,North,5,0.0,0.0,97,0.00,,,0.01,,2013-07-12 05:02:00,
2013-07-12 01:11:00,73.0,72.0,29.82,North,5,0.0,0.0,97,0.00,,,0.01,,2013-07-12 05:11:00,
2013-07-12 01:22:00,73.0,72.0,29.82,North,5,0.0,0.0,97,0.00,,,0.01,,2013-07-12 05:22:00,
2013-07-12 01:32:00,73.0,72.0,29.83,North,5,0.0,0.0,97,0.00,,,0.01,,2013-07-12 05:32:00,
2013-07-12 01:43:00,73.0,72.0,29.83,North,5,0.0,0.0,97,0.00,,,0.01,,2013-07-12 05:43:00,
2013-07-12 01:53:00,73.0,72.0,29.82,North,5,0.0,0.0,98,0.00,,,0.01,,2013-07-12 05:53:00,
2013-07-12 02:01:00,73.0,72.0,29.83,North,5,0.0,1.0,97,0.00,,,0.01,,2013-07-12 06:01:00,
2013-07-12 02:11:00,73.0,72.0,29.83,North,5,0.0,1.0,97,0.00,,,0.01,,2013-07-12 06:11:00,
2013-07-12 02:22:00,72.0,71.0,29.83,North,5,0.0,0.0,98,0.00,,,0.01,,2013-07-12 06:22:00,
2013-07-12 02:42:00,72.0,71.0,29.83,North,5,0.0,0.0,98,0.00,,,0.01,,2013-07-12 06:42:00,
2013-07-12 02:52:00,72.0,71.0,29.83,North,5,0.0,0.0,98,0.00,,,0.01,,2013-07-12 06:52:00,
2013-07-12 03:02:00,73.0,72.0,29.82,North,5,0.0,2.0,98,0.00,,,0.01,,2013-07-12 07:02:00,
2013-07-12 03:12:00,73.0,72.0,29.82,North,5,0.0,2.0,98,0.00,,,0.01,,2013-07-12 07:12:00,
2013-07-12 03:22:00,73.0,72.0,29.81,North,5,1.0,4.0,98,0.00,,,0.01,,2013-07-12 07:22:00,
2013-07-12 03:32:00,73.0,72.0,29.82,North,5,0.0,5.0,98,0.00,,,0.01,,2013-07-12 07:32:00,
2013-07-12 03:43:00,73.0,72.0,29.82,North,5,0.0,5.0,98,0.00,,,0.01,,2013-07-12 07:43:00,
2013-07-12 03:52:00,73.0,72.0,29.82,North,5,0.0,3.0,98,0.00,,,0.01,,2013-07-12 07:52:00,
2013-07-12 04:01:00,73.0,72.0,29.82,North,5,0.0,1.0,97,0.01,,,0.02,,2013-07-12 08:01:00,
2013-07-12 04:11:00,73.0,72.0,29.82,North,5,0.0,1.0,97,0.01,,,0.02,,2013-07-12 08:11:00,
2013-07-12 04:21:00,72.0,71.0,29.82,North,5,0.0,4.0,97,0.02,,,0.03,,2013-07-12 08:21:00,
2013-07-12 04:32:00,72.0,71.0,29.82,North,5,0.0,1.0,97,0.02,,,0.03,,2013-07-12 08:32:00,
2013-07-12 04:42:00,72.0,71.0,29.82,North,5,0.0,1.0,97,0.02,,,0.03,,2013-07-12 08:42:00,
2013-07-12 04:53:00,72.0,71.0,29.82,North,5,0.0,2.0,97,0.02,,,0.03,,2013-07-12 08:53:00,
2013-07-12 05:02:00,72.0,70.0,29.82,North,5,0.0,2.0,95,0.01,,,0.03,,2013-07-12 09:02:00,
2013-07-12 05:12:00,72.0,70.0,29.82,North,5,0.0,2.0,95,0.01,,,0.03,,2013-07-12 09:12:00,
2013-07-12 05:22:00,71.0,69.0,29.82,North,5,0.0,3.0,95,0.00,,,0.03,,2013-07-12 09:22:00,
2013-07-12 05:32:00,71.0,69.0,29.82,North,5,0.0,3.0,95,0.00,,,0.03,,2013-07-12 09:32:00,
2013-07-12 05:43:00,71.0,69.0,29.82,North,5,0.0,1.0,95,0.00,,,0.03,,2013-07-12 09:43:00,
2013-07-12 05:52:00,71.0,69.0,29.82,North,5,0.0,2.0,95,0.00,,,0.03,,2013-07-12 09:52:00,
2013-07-12 06:11:00,71.0,69.0,29.82,North,5,0.0,3.0,95,0.00,,,0.03,,2013-07-12 10:11:00,
2013-07-12 06:22:00,70.0,68.0,29.83,North,5,0.0,2.0,95,0.00,,,0.03,,2013-07-12 10:22:00,
2013-07-12 06:33:00,70.0,68.0,29.83,North,5,0.0,2.0,95,0.00,,,0.03,,2013-07-12 10:33:00,
2013-07-12 06:42:00,70.0,69.0,29.82,North,5,0.0,2.0,96,0.00,,,0.03,,2013-07-12 10:42:00,
2013-07-12 06:52:00,70.0,69.0,29.83,North,5,0.0,0.0,96,0.00,,,0.03,,2013-07-12 10:52:00,
2013-07-12 07:02:00,70.0,69.0,29.83,North,5,0.0,0.0,96,0.00,,,0.03,,2013-07-12 11:02:00,
2013-07-12 07:12:00,70.0,69.0,29.83,North,5,0.0,0.0,97,0.00,,,0.03,,2013-07-12 11:12:00,
2013-07-12 07:22:00,70.0,69.0,29.83,North,5,0.0,0.0,97,0.00,,,0.03,,2013-07-12 11:22:00,
2013-07-12 07:32:00,70.0,69.0,29.83,North,5,0.0,0.0,97,0.00,,,0.03,,2013-07-12 11:32:00,
2013-07-12 07:43:00,70.0,69.0,29.83,North,5,0.0,0.0,97,0.00,,,0.03,,2013-07-12 11:43:00,
2013-07-12 07:53:00,70.0,69.0,29.83,North,5,0.0,1.0,97,0.00,,,0.03,,2013-07-12 11:53:00,
2013-07-12 08:02:00,70.0,69.0,29.83,North,5,0.0,1.0,97,0.00,,,0.03,,2013-07-12 12:02:00,
2013-07-12 08:11:00,71.0,70.0,29.84,North,5,0.0,1.0,97,0.00,,,0.03,,2013-07-12 12:11:00,
2013-07-12 08:22:00,71.0,70.0,29.84,North,5,0.0,1.0,97,0.00,,,0.03,,2013-07-12 12:22:00,
2013-07-12 08:32:00,71.0,70.0,29.85,North,5,0.0,0.0,98,0.00,,,0.03,,2013-07-12 12:32:00,
2013-07-12 08:43:00,71.0,70.0,29.85,North,5,0.0,0.0,98,0.00,,,0.03,,2013-07-12 12:43:00,
2013-07-12 08:53:00,71.0,70.0,29.85,North,5,0.0,2.0,98,0.00,,,0.03,,2013-07-12 12:53:00,
2013-07-12 09:01:00,72.0,71.0,29.85,North,5,0.0,1.0,98,0.00,,,0.03,,2013-07-12 13:01:00,
2013-07-12 09:12:00,72.0,71.0,29.85,North,5,0.0,1.0,98,0.00,,,0.03,,2013-07-12 13:12:00,
2013-07-12 09:22:00,73.0,72.0,29.85,North,5,0.0,3.0,96,0.00,,,0.03,,2013-07-12 13:22:00,
2013-07-12 09:43:00,74.0,72.0,29.85,North,5,0.0,1.0,95,0.00,,,0.03,,2013-07-12 13:43:00,
2013-07-12 09:53:00,75.0,73.0,29.85,North,5,0.0,2.0,92,0.00,,,0.03,,2013-07-12 13:53:00,
2013-07-12 10:02:00,75.0,73.0,29.85,North,5,0.0,2.0,92,0.00,,,0.03,,2013-07-12 14:02:00,
2013-07-12 10:12:00,77.0,73.0,29.85,North,5,1.0,3.0,87,0.00,,,0.03,,2013-07-12 14:12:00,
2013-07-12 10:22:00,78.0,72.0,29.85,North,5,1.0,3.0,83,0.00,,,0.03,,2013-07-12 14:22:00,
2013-07-12 10:32:00,79.0,74.0,29.85,North,5,1.0,3.0,84,0.00,,,0.03,,2013-07-12 14:32:00,
2013-07-12 10:44:00,79.0,74.0,29.85,North,5,1.0,3.0,84,0.00,,,0.03,,2013-07-12 14:44:00,
2013-07-12 10:53:00,80.0,73.0,29.85,North,5,1.0,4.0,80,0.00,,,0.03,,2013-07-12 14:53:00,
2013-07-12 11:02:00,81.0,73.0,29.85,North,5,0.0,5.0,78,0.00,,,0.03,,2013-07-12 15:02:00,
2013-07-12 11:11:00,81.0,73.0,29.85,North,5,0.0,5.0,78,0.00,,,0.03,,2013-07-12 15:11:00,
2013-07-12 11:33:00,82.0,72.0,29.85,North,5,1.0,4.0,73,0.00,,,0.03,,2013-07-12 15:33:00,
2013-07-12 11:43:00,84.0,74.0,29.85,North,5,0.0,3.0,71,0.00,,,0.03,,2013-07-12 15:43:00,
2013-07-12 11:53:00,84.0,72.0,29.85,North,5,1.0,3.0,68,0.00,,,0.03,,2013-07-12 15:53:00,
2013-07-12 12:01:00,84.0,72.0,29.85,North,5,1.0,3.0,68,0.00,,,0.03,,2013-07-12 16:01:00,
2013-07-12 12:11:00,84.0,74.0,29.85,North,5,0.0,2.0,72,0.00,,,0.03,,2013-07-12 16:11:00,
2013-07-12 12:22:00,85.0,74.0,29.85,North,5,0.0,3.0,69,0.00,,,0.02,,2013-07-12 16:22:00,
2013-07-12 12:32:00,85.0,74.0,29.85,North,5,0.0,3.0,69,0.00,,,0.02,,2013-07-12 16:32:00,
2013-07-12 12:43:00,86.0,74.0,29.85,North,5,1.0,6.0,67,0.00,,,0.02,,2013-07-12 16:43:00,
2013-07-12 13:06:00,86.0,74.0,29.84,North,5,1.0,6.0,68,0.00,,,0.02,,2013-07-12 17:06:00,
2013-07-12 13:14:00,85.0,74.0,29.84,North,5,0.0,3.0,70,0.00,,,0.02,,2013-07-12 17:14:00,
2013-07-12 13:24:00,86.0,75.0,29.83,North,5,1.0,6.0,70,0.00,,,0.02,,2013-07-12 17:24:00,
2013-07-12 13:53:00,86.0,75.0,29.83,North,5,1.0,6.0,70,0.00,,,0.02,,2013-07-12 17:53:00,
2013-07-12 14:07:00,87.0,73.0,29.82,North,5,1.0,4.0,64,0.00,,,0.02,,2013-07-12 18:07:00,
2013-07-12 14:14:00,86.0,73.0,29.83,North,5,1.0,6.0,65,0.00,,,0.02,,2013-07-12 18:14:00,
2013-07-12 14:28:00,85.0,73.0,29.83,North,5,0.0,3.0,68,0.00,,,0.02,,2013-07-12 18:28:00,
2013-07-12 14:34:00,85.0,73.0,29.83,North,5,0.0,3.0,68,0.00,,,0.02,,2013-07-12 18:34:00,
2013-07-12 14:56:00,86.0,73.0,29.82,North,5,1.0,6.0,66,0.00,,,0.02,,2013-07-12 18:56:00,
2013-07-12 15:05:00,87.0,72.0,29.82,North,360,1.0,5.0,62,0.00,,,0.02,,2013-07-12 19:05:00,
2013-07-12 15:24:00,86.0,73.0,29.82,North,5,1.0,5.0,65,0.00,,,0.02,,2013-07-12 19:24:00,
2013-07-12 15:33:00,85.0,73.0,29.82,North,5,1.0,6.0,67,0.00,,,0.02,,2013-07-12 19:33:00,
2013-07-12 15:46:00,84.0,74.0,29.83,North,5,1.0,4.0,71,0.00,,,0.02,,2013-07-12 19:46:00,
2013-07-12 15:56:00,84.0,74.0,29.83,North,5,1.0,4.0,71,0.00,,,0.02,,2013-07-12 19:56:00,
2013-07-12 16:04:00,83.0,72.0,29.82,North,5,1.0,4.0,70,0.00,,,0.02,,2013-07-12 20:04:00,
2013-07-12 16:14:00,83.0,72.0,29.82,North,5,2.0,5.0,69,0.00,,,0.02,,2013-07-12 20:14:00,
2013-07-12 16:34:00,82.0,73.0,29.80,North,5,0.0,3.0,75,0.00,,,0.02,,2013-07-12 20:34:00,
2013-07-12 16:45:00,81.0,72.0,29.80,North,5,0.0,4.0,73,0.00,,,0.02,,2013-07-12 20:45:00,
2013-07-12 17:16:00,78.0,72.0,29.82,North,5,0.0,0.0,81,0.00,,,0.02,,2013-07-12 21:16:00,
2013-07-12 17:35:00,76.0,71.0,29.82,North,5,0.0,0.0,85,0.00,,,0.02,,2013-07-12 21:35:00,
2013-07-12 17:46:00,75.0,72.0,29.83,North,5,0.0,1.0,89,0.00,,,0.02,,2013-07-12 21:46:00,
2013-07-12 17:55:00,75.0,72.0,29.83,North,5,0.0,1.0,89,0.00,,,0.02,,2013-07-12 21:55:00,
2013-07-12 18:04:00,74.0,71.0,29.82,North,5,1.0,8.0,91,0.00,,,0.02,,2013-07-12 22:04:00,
2013-07-12 18:17:00,73.0,69.0,29.88,North,5,0.0,6.0,86,0.23,,,0.25,,2013-07-12 22:17:00,
2013-07-12 18:24:00,73.0,69.0,29.88,North,5,0.0,6.0,86,0.23,,,0.25,,2013-07-12 22:24:00,
2013-07-12 18:33:00,71.0,67.0,29.90,North,5,1.0,7.0,86,0.55,,,0.56,,2013-07-12 22:33:00,
2013-07-12 18:45:00,69.0,65.0,29.89,North,5,0.0,3.0,88,0.85,,,0.87,,2013-07-12 22:45:00,
2013-07-12 19:04:00,67.0,64.0,29.89,North,5,0.0,2.0,90,0.92,,,0.94,,2013-07-12 23:04:00,
2013-07-12 19:14:00,67.0,65.0,29.91,North,5,0.0,1.0,92,0.71,,,0.97,,2013-07-12 23:14:00,
2013-07-12 19:25:00,67.0,65.0,29.91,North,5,0.0,1.0,92,0.71,,,0.97,,2013-07-12 23:25:00,
2013-07-12 19:35:00,66.0,64.0,29.90,North,5,0.0,1.0,93,0.43,,,1.01,,2013-07-12 23:35:00,
2013-07-12 19:44:00,66.0,64.0,29.89,North,5,0.0,2.0,94,0.17,,,1.04,,2013-07-12 23:44:00,
2013-07-12 19:55:00,66.0,65.0,29.89,North,5,0.0,0.0,95,0.12,,,1.06,,2013-07-12 23:55:00,
2013-07-12 20:18:00,66.0,65.0,29.89,North,5,0.0,0.0,95,0.09,,,1.06,,2013-07-13 00:18:00,
2013-07-12 20:25:00,66.0,65.0,29.88,North,5,0.0,0.0,95,0.05,,,1.06,,2013-07-13 00:25:00,
2013-07-12 20:33:00,66.0,65.0,29.88,North,5,0.0,0.0,95,0.05,,,1.06,,2013-07-13 00:33:00,
2013-07-12 20:47:00,66.0,65.0,29.89,North,5,1.0,2.0,96,0.02,,,1.06,,2013-07-13 00:47:00,
2013-07-12 21:05:00,66.0,65.0,29.88,North,5,0.0,1.0,96,0.00,,,1.06,,2013-07-13 01:05:00,
2013-07-12 21:13:00,66.0,65.0,29.87,North,5,0.0,1.0,96,0.00,,,1.06,,2013-07-13 01:13:00,
2013-07-12 21:24:00,66.0,65.0,29.87,North,5,0.0,1.0,96,0.00,,,1.06,,2013-07-13 01:24:00,
2013-07-12 21:38:00,66.0,65.0,29.87,North,5,0.0,1.0,96,0.00,,,1.06,,2013-07-13 01:38:00,
2013-07-12 21:47:00,66.0,65.0,29.88,North,5,0.0,3.0,97,0.00,,,1.06,,2013-07-13 01:47:00,
2013-07-12 21:55:00,66.0,65.0,29.89,North,5,0.0,0.0,97,0.00,,,1.06,,2013-07-13 01:55:00,
2013-07-12 22:15:00,66.0,65.0,29.89,North,5,0.0,1.0,97,0.00,,,1.06,,2013-07-13 02:15:00,
2013-07-12 22:24:00,66.0,65.0,29.89,North,5,0.0,1.0,97,0.00,,,1.06,,2013-07-13 02:24:00,
2013-07-12 22:37:00,66.0,65.0,29.90,North,5,0.0,2.0,97,0.00,,,1.06,,2013-07-13 02:37:00,
2013-07-12 22:46:00,66.0,65.0,29.91,North,5,0.0,2.0,97,0.00,,,1.06,,2013-07-13 02:46:00,
2013-07-12 22:54:00,66.0,65.0,29.91,North,5,0.0,2.0,97,0.00,,,1.06,,2013-07-13 02:54:00,
2013-07-12 23:05:00,66.0,65.0,29.92,North,5,0.0,0.0,97,0.00,,,1.06,,2013-07-13 03:05:00,
2013-07-12 23:13:00,66.0,65.0,29.93,North,5,0.0,0.0,97,0.00,,,1.06,,2013-07-13 03:13:00,
2013-07-12 23:37:00,66.0,65.0,29.92,North,5,0.0,0.0,97,0.00,,,1.06,,2013-07-13 03:37:00,
2013-07-12 23:45:00,66.0,65.0,29.92,North,5,0.0,0.0,97,0.00,,,1.06,,2013-07-13 03:45:00,